Flag for Germany Weather past 2 weeks in Osterholz-Scharmbeck, Lower Saxony, Germany

Now
73 °F

Partly sunny.


Feels Like: 75 °F
Forecast: 63 / 77 °F
Wind: 3 mph from Southeast

Location: Bremen

Current Time: Jul 26, 2014 at 2:01:40 PM

Latest Report: Jul 26, 2014 at 1:00 PM


Visibility: 16 mi

Pressure: 29.93 "Hg

Humidity: 70%

Dew point: 62 °F

Location of Osterholz-ScharmbeckLocation

Historic Weather in Osterholz-Scharmbeck — Graph

°F

Osterholz-Scharmbeck temperature yesterday

Maximum temperature yesterday: 72 °F (at 5:00 PM)
Minimum temperature yesterday: 62 °F (at 6:00 AM)
Average temperature yesterday: 66 °F

Past Weeks' High & Low Weather Summary

 TemperatureHumidityPressure
High90 °F (Jul 19, 5:00 PM)98% (Jul 16, 7:00 AM)30.18 "Hg (Jul 16, 7:00 AM)
Low54 °F (Jul 17, 5:00 AM)27% (Jul 19, 5:00 PM)29.67 "Hg (Jul 13, 8:00 PM)
Average70 °F70%29.97 "Hg
* Reported Jul 11 1:00 PM — Jul 26 1:00 PM, Osterholz-Scharmbeck, Weather by CustomWeather, © 2014

Note: Actual official high and low records may vary slightly from our data, if they occured in-between our weather recording intervals... More about our weather records

Advertising

Osterholz-Scharmbeck weather history for previous 24 hours

 ConditionsComfort  
Time TempWeatherWind HumidityBarometerVisibility
1:00 PM
Jul 26
73 °FPartly sunny.3 mph70%29.93 "Hg16 mi
12:00 PM71 °FPartly sunny.2 mph79%29.93 "Hg9 mi
11:00 AM69 °FLow clouds.2 mph84%29.93 "Hg9 mi
10:00 AM67 °FLow clouds.2 mph89%29.93 "Hg9 mi
9:00 AM66 °FLow clouds.2 mph91%29.92 "Hg7 mi
8:00 AM65 °FLow clouds.2 mph95%29.92 "Hg4 mi
7:00 AM64 °FLight rain. Low clouds.1 mph96%29.92 "Hg2 mi
6:00 AM64 °FFog.2 mph96%29.91 "Hg2 mi
5:00 AM64 °FFog.3 mph95%29.90 "Hg3 mi
4:00 AM64 °FFog.3 mph96%29.90 "Hg4 mi
3:00 AM63 °FPassing clouds.3 mph94%29.90 "Hg7 mi
2:00 AM64 °FOvercast.1 mph92%29.90 "Hg12 mi
1:00 AM64 °FOvercast.1 mph94%29.91 "Hg12 mi
12:00 AM65 °FOvercast.2 mph92%29.92 "Hg12 mi
11:00 PM
Jul 25
66 °FOvercast.3 mph87%29.92 "Hg11 mi
10:00 PM66 °FThunderstorms. Low clouds.3 mph95%29.93 "Hg6 mi
9:00 PM67 °FThundershowers. Overcast.3 mph92%29.95 "Hg2 mi
8:00 PM69 °FOvercast.2 mph88%29.93 "Hg9 mi
7:00 PM72 °FOvercast.1 mph79%29.93 "Hg8 mi
6:00 PM72 °FOvercast.2 mph81%29.95 "Hg11 mi
5:00 PM72 °FOvercast.2 mph78%29.95 "Hg10 mi
4:00 PM71 °FOvercast.3 mph81%29.96 "Hg11 mi
3:00 PM70 °FOvercast.5 mph81%29.97 "Hg10 mi
2:00 PM71 °FOvercast.6 mph83%29.97 "Hg9 mi
Weather by CustomWeather, © 2014

See weather overviewHow to use our weather pages